EW8696 Weather Reports


time (UTC)temp
C
wind
direction
speed
KPH
gust
KPH
rain 1hr
cm
rain 24hr
cm
rain mn
cm
humidity
%
barometer
mb
20260505193037 10 190 1.6 17.7 0.08 2.08 2.01 85 1020.3
20260505191532 11 190 1.6 17.7 0.05 2.06 1.98 85 1020.9
20260505190020 11 190 0.0 19.3 0.08 2.06 1.98 84 1020.3
20260505184519 11 190 0.0 14.5 0.08 2.08 1.96 84 1019.9
20260505183017 12 190 0.0 19.3 0.05 2.06 1.93 84 1020.1
20260505181513 12 190 6.4 19.3 0.08 2.06 1.93 86 1019.4
20260505180012 12 190 0.0 16.1 0.08 2.11 1.91 86 1018.8
20260505174523 12 190 0.0 12.9 0.08 2.08 1.88 85 1017.6
20260505173011 12 190 0.0 12.9 0.10 2.08 1.88 83 1017.1
20260505171513 12 190 0.0 20.9 0.13 2.06 1.85 82 1017.3
20260505170019 12 190 11.3 29.0 0.13 2.26 1.83 87 1017.3
20260505164507 12 190 0.0 6.4 0.15 2.24 1.80 90 1016.8
20260505163009 12 190 0.0 6.4 0.15 2.21 1.78 91 1016.4
20260505161506 13 190 0.0 3.2 0.15 2.16 1.73 91 1016.4
20260505153004 12 190 0.0 1.6 0.20 2.06 1.63 91 1016.4
20260505151504 12 190 0.0 0.0 0.20 2.01 1.57 91 1016.1
20260505124551 19 190 17.7 29.0 0.43 1.32 0.89 77 1012.6
20260505123106 19 190 9.7 25.7 0.36 1.19 0.76 85 1013.1
20260505121547 18 190 6.4 22.5 0.30 1.09 0.66 88 1013.4
20260505120047 17 190 1.6 16.1 0.23 0.99 0.56 89 1013.7
20260505114604 16 190 8.0 20.9 0.15 0.89 0.46 90 1014.1
20260505113043 15 190 1.6 14.5 0.13 0.84 0.41 90 1014.9
20260505111556 14 190 0.0 17.7 0.10 0.79 0.36 91 1015.0
20260505101536 19 190 1.6 17.7 0.05 0.69 0.25 78 1014.0
20260505100035 19 190 1.6 24.1 0.05 0.69 0.25 78 1015.0
20260505094528 19 190 1.6 29.0 0.05 0.66 0.23 80 1015.6
20260505093029 18 190 4.8 29.0 0.05 0.64 0.20 81 1016.0
20260505091531 18 190 11.3 29.0 0.05 0.64 0.20 83 1016.3
20260505090025 18 190 14.5 30.6 0.05 0.64 0.20 84 1016.7
20260505084519 18 190 11.3 27.4 0.05 0.61 0.18 88 1016.7
20260505083017 17 190 0.0 19.3 0.05 0.58 0.15 88 1016.9
20260505081513 17 190 3.2 22.5 0.05 0.58 0.15 88 1017.0
20260505080025 16 190 0.0 12.9 0.05 0.58 0.15 90 1016.9
20260505074505 15 190 0.0 9.7 0.03 0.56 0.13 90 1017.0
20260505073004 15 190 4.8 27.4 0.00 0.53 0.10 90 1017.1
20260505071502 15 190 9.7 29.0 0.00 0.53 0.10 90 1017.5
20260505070000 15 190 0.0 16.1 0.00 0.53 0.10 91 1017.3
20260505064604 15 190 3.2 22.5 0.00 0.53 0.10 90 1018.4
20260505063058 15 190 6.4 19.3 0.03 0.53 0.10 90 1019.1
20260505061557 15 190 1.6 16.1 0.03 0.53 0.10 90 1017.9
20260505054603 14 190 0.0 3.2 0.03 0.53 0.10 89 1017.8
20260505053109 14 190 4.8 19.3 0.00 0.51 0.08 89 1017.9
20260505051554 14 190 8.0 16.1 0.00 0.51 0.08 90 1018.8
20260505041609 14 190 14.5 22.5 0.00 0.51 0.08 88 1018.8
20260505040047 14 190 8.0 16.1 0.03 0.51 0.08 88 1018.5
20260505034547 14 190 8.0 17.7 0.03 0.51 0.08 88 1018.1
20260505033043 14 190 6.4 17.7 0.03 0.51 0.08 88 1017.9
20260505031543 14 190 8.0 17.7 0.03 0.51 0.08 87 1017.9
20260505030040 14 190 6.4 16.1 0.00 0.48 0.05 87 1017.9
20260505024544 14 190 4.8 17.7 0.00 0.48 0.05 87 1017.9
20260505023044 14 190 0.0 4.8 0.00 0.48 0.05 87 1018.1
20260505021543 15 190 0.0 0.0 0.00 0.48 0.05 86 1018.1
20260505020035 15 190 8.0 19.3 0.00 0.48 0.05 86 1018.2
20260505014541 15 190 9.7 19.3 0.00 0.48 0.05 87 1018.2
20260505013032 15 190 9.7 17.7 0.00 0.48 0.05 88 1018.2
20260505011534 15 190 4.8 16.1 0.00 0.48 0.05 89 1018.4
20260505010029 15 190 0.0 9.7 0.00 0.48 0.05 89 1018.7
20260505004530 15 190 6.4 16.1 0.00 0.48 0.05 89 1018.7
20260505003026 15 190 1.6 17.7 0.03 0.48 0.05 89 1019.0
20260505001522 15 190 9.7 19.3 0.03 0.48 0.05 90 1019.2
20260505000029 15 190 8.0 20.9 0.03 0.48 0.05 90 1019.5
20260504234520 15 190 0.0 12.9 0.03 0.48 0.05 90 1019.3
20260504233020 15 190 0.0 6.4 0.03 0.46 0.03 90 1019.6
20260504231523 15 190 0.0 12.9 0.03 0.46 0.03 90 1019.9
20260504230015 14 190 0.0 8.0 0.03 0.46 0.03 90 1020.3
20260504224508 14 190 0.0 0.0 0.03 0.46 0.03 89 1020.2
20260504223006 14 190 0.0 0.0 0.00 0.43 0.00 90 1020.3
20260504221505 14 190 0.0 0.0 0.00 0.43 0.00 90 1020.5
20260504220007 14 190 0.0 0.0 0.00 0.43 0.43 90 1020.8
20260504214601 14 190 0.0 0.0 0.03 0.43 0.43 90 1020.9
20260504213102 15 190 0.0 1.6 0.03 0.43 0.43 90 1021.2
20260504211559 15 190 0.0 0.0 0.05 0.43 0.43 90 1021.5
20260504210110 15 190 0.0 3.2 0.05 0.43 0.43 90 1021.9
20260504204604 15 190 0.0 4.8 0.03 0.41 0.41 90 1021.7
20260504203058 15 190 0.0 0.0 0.03 0.41 0.41 90 1022.1
20260504201601 15 190 0.0 0.0 0.03 0.38 0.38 90 1022.4
20260504200101 15 190 0.0 6.4 0.03 0.38 0.38 90 1022.7
20260504194609 15 190 0.0 0.0 0.05 0.38 0.38 90 1023.0